Tracking 28793 objects as of 21-Apr-2024
HD Live streaming from Space Station
objects crossing your sky now

THOR ABLESTAR DEB

Track THOR ABLESTAR DEB now!
10-day predictions


NORAD ID: 357
Int'l Code: 1961-015DX
Perigee: 870.3 km
Apogee: 887.2 km
Inclination: 66.8 °
Period: 102.4 minutes
Semi major axis: 7249 km
RCS: 0.059 m2 (small)
Launch date: June 29, 1961
Source: United States (US)
Launch site: AIR FORCE EASTERN TEST RANGE (AFETR)

Note: This is SATELLITE DEBRIS
Your satellite tracking list
Your tracking list is empty




NASA's NSSDC Master Catalog

Two Line Element Set (TLE):
1 00357U 61015DX  24111.27725949  .00004343  00000-0  26703-2 0  9996
2 00357  66.8104  65.9820 0011653 357.6431   2.4599 14.06438312184911
Source of the keplerian elements: AFSPC